Probability
3 4 5 4 3 2 2 2 1 0 0 0 0 0 0 0 0 0 0 0 1 1 1 1 1 2 2 1 0 1 2 2 2 1 0 0 0 0 0 0 0 0 0
2 3 4 4 4 4 3 2 0 0 0 0 0 0 0 0 0 0 0 1 1 2 1 1 2 3 2 1 0 1 2 2 2 1 0 0 0 0 0 0 0 0 0
2 2 2 3 5 6 5 3 1 0 0 0 0 0 0 0 0 0 0 1 1 1 1 1 2 3 2 1 1 1 3 4 4 2 1 0 0 0 0 0 0 0 0
1 1 1 1 3 5 5 3 1 0 0 0 0 0 0 1 0 0 0 1 1 1 1 2 3 3 1 0 0 1 2 4 4 3 2 1 1 1 0 0 0 0 0
0 0 0 0 1 2 3 3 1 0 0 0 0 0 0 0 0 0 0 0 0 1 3 4 4 2 1 1 1 1 1 3 3 4 4 3 2 2 1 0 0 0 0
0 0 0 0 1 1 1 1 1 0 0 0 0 0 0 0 0 0 0 0 0 0 2 3 3 3 3 3 3 2 1 2 3 4 5 4 3 2 1 0 0 0 0
0 0 0 0 0 0 0 0 0 0 0 0 0 0 0 0 0 0 0 0 0 0 0 1 2 3 4 4 4 3 2 1 2 3 5 5 4 3 1 0 0 0 0
0 0 0 0 0 0 0 0 0 0 0 0 0 0 0 0 0 0 0 0 0 1 1 0 0 2 3 4 4 3 2 2 2 3 5 6 5 3 1 0 0 0 0
0 0 0 0 0 0 0 0 0 0 0 0 0 0 0 0 0 0 0 0 0 1 1 0 0 1 3 4 4 4 4 4 4 4 7 7 5 2 1 1 1 0 0
0 0 0 0 0 0 0 0 0 0 0 0 0 0 0 0 0 0 0 0 0 1 1 0 0 1 2 3 3 4 4 4 5 6 7 7 5 2 2 2 2 2 2
0 0 0 0 0 0 0 0 0 0 0 0 0 0 0 0 0 0 0 0 0 0 0 0 0 0 1 1 2 3 2 2 3 4 5 4 4 3 2 1 2 4 4
0 0 0 0 0 0 0 0 0 0 0 0 0 0 0 0 0 0 0 0 0 0 0 0 0 0 0 0 1 1 0 0 1 2 2 2 3 3 2 1 3 4 4
0 1 1 1 0 0 0 0 0 0 0 0 0 0 0 0 0 0 0 0 0 0 0 0 0 0 0 0 0 0 0 0 0 0 0 1 2 3 2 1 3 5 5
1 2 2 2 1 0 0 0 0 0 0 0 0 0 0 0 0 0 0 0 0 0 0 0 0 0 0 0 0 0 0 0 0 0 0 0 1 1 1 1 2 4 5
3 3 3 3 2 0 0 0 0 0 0 0 0 0 0 0 0 0 0 0 0 0 0 0 0 0 0 0 0 0 0 0 0 0 0 0 0 0 0 0 1 1 2
3 3 3 3 1 0 0 0 0 0 0 0 0 0 0 0 0 0 0 0 0 0 0 0 0 0 0 0 0 0 0 0 0 0 0 0 0 0 0 0 0 0 0
4 3 3 2 1 0 0 0 0 0 0 0 0 0 0 0 0 0 0 0 0 0 0 0 0 0 0 0 0 0 0 0 0 0 0 0 0 0 0 0 0 0 0
5 4 4 3 1 0 0 0 0 0 0 0 0 0 0 0 0 0 0 0 0 0 0 0 0 0 0 0 0 0 0 0 0 0 0 0 0 0 0 0 0 0 0
7 7 5 3 1 0 0 0 0 0 0 0 0 0 0 0 0 0 0 0 0 0 0 0 0 0 0 0 0 0 0 0 0 0 0 0 0 0 0 0 0 0 0
10 9 6 4 2 1 0 0 0 0 0 0 0 0 0 0 0 0 0 0 0 0 0 0 0 0 0 0 0 0 0 0 0 0 0 0 0 0 0 0 0 0 0
12 10 7 4 2 1 0 0 0 0 0 0 0 0 0 0 0 0 0 0 0 0 0 0 0 0 0 0 0 0 0 0 0 0 0 0 0 0 0 0 0 0 0
13 12 8 4 1 0 0 0 0 0 0 1 2 3 1 0 0 0 0 0 0 0 0 0 0 0 0 0 0 0 0 0 0 0 0 0 0 0 0 1 0 0 0
14 12 9 6 3 1 0 0 0 0 0 2 5 6 5 2 1 1 1 0 0 0 0 0 0 0 0 0 0 0 0 0 0 0 0 0 0 0 0 0 0 0 0
15 13 10 9 6 3 0 0 0 0 0 2 5 7 7 6 3 2 1 1 1 0 0 0 0 0 0 0 0 0 0 0 0 0 0 0 0 0 0 0 0 0 0
17 14 11 10 10 6 2 0 0 0 0 2 3 4 6 5 2 1 1 3 3 2 1 0 0 0 0 0 0 0 0 0 0 0 0 0 0 0 0 0 0 0 0
18 15 11 10 10 8 3 0 0 0 0 1 2 2 2 2 1 0 1 4 5 4 2 1 0 0 0 0 0 0 0 0 0 0 0 0 0 0 0 0 0 0 0
Wind_Speed
2 1 1 0 1 0 1 1 1 1 3 3 3 3 3 3 4 4 2 5 4 4 6 8 10 12 12 12 12 12 12 11 10 10 9 10 10 10 10 10 9 9 9
2 1 1 0 0 1 1 1 1 2 2 2 3 3 3 3 2 4 4 4 7 6 6 7 9 10 12 13 13 12 12 11 11 10 10 10 10 10 11 10 10 9 9
2 1 1 0 1 1 0 1 1 2 2 2 2 3 3 3 2 3 4 3 4 7 8 7 8 9 11 13 13 13 12 11 10 11 11 11 11 11 11 10 10 10 10
2 1 1 1 1 0 0 0 1 1 1 2 1 2 2 2 2 3 3 3 3 3 6 7 7 8 10 12 12 14 13 12 12 12 12 13 12 12 12 11 11 11 10
3 1 2 2 0 0 1 1 1 2 1 2 2 1 2 1 1 2 2 3 2 3 3 6 7 7 9 11 12 13 14 14 14 14 15 15 14 14 13 13 12 12 12
3 2 3 2 1 1 1 2 2 2 2 3 4 2 2 1 2 0 2 1 1 3 3 3 4 7 9 9 10 11 14 15 15 16 17 17 16 15 14 14 14 13 13
4 1 2 3 0 2 2 2 2 0 1 3 4 3 2 2 0 0 1 1 0 1 2 2 3 3 4 9 9 9 11 13 14 16 17 17 17 16 16 16 15 15 15
4 3 2 2 2 2 2 1 1 3 2 2 4 4 2 4 3 1 0 0 2 1 2 2 2 3 5 3 5 8 8 10 12 14 15 15 15 16 16 17 17 16 16
4 2 3 1 1 1 2 1 1 2 2 1 3 4 4 2 0 3 1 1 1 2 2 1 2 2 3 3 3 5 4 5 8 12 13 14 14 15 16 17 18 18 18
5 5 4 3 1 0 2 2 2 1 3 2 1 1 3 4 5 1 3 2 1 1 2 3 2 2 2 3 1 1 0 3 5 8 10 12 14 15 16 17 18 19 19
6 5 5 4 3 2 1 1 1 2 2 3 2 1 1 1 4 5 3 2 2 2 1 3 2 2 2 2 2 3 3 3 4 5 5 7 10 13 16 17 19 20 20
6 7 6 4 4 2 3 2 2 2 1 2 3 2 2 2 3 3 4 4 4 2 3 3 4 3 3 3 2 6 3 3 3 4 4 6 7 9 11 14 17 19 19
6 7 6 5 4 3 4 3 3 2 2 2 3 2 2 3 3 4 5 5 5 4 2 5 2 3 3 3 1 5 2 1 3 4 5 5 5 6 8 10 13 15 16
5 6 6 6 5 5 5 4 4 3 3 3 3 3 3 3 3 3 4 5 6 4 3 2 3 3 3 4 3 6 5 2 2 5 5 5 5 6 6 8 10 11 13
5 7 7 7 6 6 5 5 4 3 3 5 4 5 5 2 4 3 4 5 6 7 5 2 3 2 4 5 2 7 7 1 3 6 6 7 7 7 7 8 9 10 11
6 7 7 7 7 7 6 6 5 5 5 5 4 4 4 4 3 4 4 5 5 7 7 5 4 5 5 8 4 7 9 5 10 10 8 7 8 8 8 9 9 10 11
8 8 8 8 8 7 7 6 6 5 6 6 5 6 6 5 5 4 4 5 5 6 7 8 6 5 6 8 8 8 9 9 8 11 8 8 9 9 10 10 10 10 11
9 9 8 8 8 8 8 8 8 7 7 7 7 6 7 6 6 7 5 6 6 6 8 9 8 7 7 8 8 9 9 9 9 6 9 9 10 10 11 11 11 11 11
10 9 9 9 9 8 8 8 8 8 8 8 7 8 8 7 8 6 6 7 6 6 7 8 9 7 7 7 8 9 10 8 10 8 10 13 13 12 12 12 12 12 12
10 10 10 10 9 9 9 9 9 9 9 8 8 8 9 9 9 8 7 8 7 8 8 9 9 8 7 7 7 8 8 7 8 9 8 8 10 13 14 14 14 14 13
11 10 10 10 10 9 9 10 9 10 9 9 9 10 10 9 7 7 8 7 7 8 8 8 8 8 7 6 7 7 8 8 8 8 8 9 9 10 11 15 17 16 14
11 10 11 11 11 10 8 8 9 10 9 10 10 10 10 11 12 14 13 12 11 11 10 9 9 9 9 9 8 8 9 9 9 7 7 9 9 9 9 10 8 12 13
11 11 11 11 12 10 9 11 12 11 11 11 11 10 10 10 10 12 14 17 17 18 16 13 13 12 11 10 10 11 10 10 10 9 9 11 10 11 10 9 7 9 11
10 11 11 12 11 11 12 13 12 13 13 13 13 13 13 13 12 12 12 12 13 14 15 15 14 14 13 11 10 11 12 12 12 11 11 12 11 11 10 10 10 13 14
10 10 10 11 12 11 11 13 13 11 12 14 14 14 14 14 13 11 13 14 14 13 14 16 16 14 13 11 10 11 12 12 12 11 9 11 11 11 11 11 11 14 16
9 9 10 10 11 11 10 13 14 10 12 12 12 13 15 17 14 13 14 15 15 14 13 12 13 15 16 16 16 15 14 13 12 12 9 9 10 10 11 10 9 8 10
Wind_Direction
164 137 99 319 282 242 192 223 253 251 263 257 261 257 270 273 272 270 162 156 203 228 231 225 217 214 209 209 211 207 204 203 197 191 190 189 186 185 185 184 183 179 177
119 138 168 191 320 324 9 297 279 258 261 273 265 259 256 259 250 270 274 185 188 211 226 229 224 217 213 212 212 211 207 209 203 199 198 197 195 193 194 193 191 187 184
110 139 124 180 38 13 193 251 260 253 245 240 248 254 243 259 271 262 268 272 218 198 207 222 226 221 219 219 215 213 211 212 211 209 207 203 201 199 199 198 195 192 190
113 142 110 74 53 294 275 191 269 273 272 272 265 278 268 238 259 264 258 243 257 248 198 198 222 224 223 223 221 218 215 211 215 217 215 210 206 204 203 202 200 196 195
133 126 77 74 187 78 43 319 54 325 328 322 283 245 281 274 269 256 272 270 255 263 260 172 202 222 229 226 227 227 222 215 216 220 220 217 213 210 207 205 204 202 200
134 119 118 99 58 74 64 48 44 20 330 326 305 313 284 279 261 286 266 239 245 253 259 258 216 205 213 223 225 229 229 221 218 222 224 221 217 213 211 209 208 206 204
132 129 106 119 79 73 36 23 338 74 338 338 292 266 213 208 127 198 307 309 287 274 259 253 267 276 210 202 213 227 232 229 221 221 223 224 221 217 214 213 211 209 208
155 154 121 152 112 115 111 54 350 330 17 359 316 295 244 178 191 119 179 65 352 304 262 241 249 254 272 243 174 205 228 236 233 226 222 221 221 220 217 216 214 212 211
168 150 160 146 143 196 107 84 348 347 341 10 356 322 312 346 261 156 121 45 345 327 298 278 240 249 258 261 243 186 216 237 241 237 227 222 221 221 222 219 217 215 214
177 173 176 169 194 137 128 197 79 325 307 324 98 354 346 352 309 274 193 163 178 284 335 306 290 257 264 259 214 40 327 279 259 248 239 230 224 223 225 225 223 221 219
184 185 183 177 185 194 137 56 113 307 309 326 333 323 315 232 267 293 302 302 265 253 301 284 297 295 304 286 275 54 25 326 293 264 248 238 230 226 227 229 230 228 225
186 185 188 189 198 188 172 191 208 207 311 342 316 313 302 303 305 302 294 284 293 291 302 300 275 278 284 285 33 44 4 346 328 305 272 247 236 233 233 233 233 233 231
190 181 192 193 198 190 194 200 209 245 227 242 267 289 306 305 313 307 302 308 305 290 267 256 259 277 277 293 351 14 243 327 330 317 301 269 248 242 240 241 240 239 237
195 170 188 194 196 196 200 200 227 211 220 241 257 285 281 275 287 289 301 307 299 294 258 275 295 274 309 292 28 306 263 164 312 311 300 284 264 253 245 243 242 241 240
184 180 190 191 193 198 208 215 234 232 226 239 237 221 250 267 263 275 280 289 299 302 305 285 269 291 291 297 320 289 291 247 283 284 283 278 272 264 255 248 244 241 237
188 186 191 194 196 198 204 221 227 214 231 236 252 271 268 264 265 267 270 273 277 288 294 303 294 294 319 306 274 284 280 259 242 244 252 262 266 265 262 258 253 248 242
189 195 197 199 201 204 207 215 238 222 231 237 238 235 241 266 270 271 264 268 270 275 282 287 289 288 281 282 296 291 281 276 261 208 219 246 258 261 259 257 255 253 250
196 198 200 204 209 210 211 217 228 228 231 237 240 241 244 239 241 261 268 268 271 275 275 285 291 286 278 276 275 279 279 275 280 216 205 233 247 252 254 254 253 251 250
200 200 203 209 214 216 216 219 226 231 235 239 241 242 244 247 247 253 257 267 270 265 266 275 279 282 278 274 278 272 272 270 274 258 216 222 232 240 246 249 249 247 246
200 203 207 213 217 219 220 222 223 229 236 240 241 242 244 244 244 250 251 254 263 273 269 267 273 276 273 271 269 273 273 262 265 277 275 261 236 228 237 241 240 239 240
205 206 211 215 219 221 222 222 227 229 233 240 240 240 242 242 251 253 263 265 263 263 270 270 272 275 277 282 278 281 283 284 272 267 271 269 257 248 234 228 228 229 230
211 211 216 220 222 226 200 206 235 247 242 243 246 245 244 227 227 226 240 252 261 263 268 276 276 277 278 278 279 281 283 282 282 278 278 276 275 271 266 261 232 205 217
211 215 220 224 229 229 197 201 217 243 250 249 249 249 252 248 226 236 227 225 236 241 246 259 270 274 278 276 281 279 274 277 283 291 288 278 275 271 267 261 210 205 221
214 217 222 227 232 231 203 207 212 233 249 251 250 248 250 256 250 244 250 245 243 238 230 232 248 258 263 270 270 271 276 274 268 260 257 267 271 272 271 267 227 211 223
218 221 225 229 234 235 208 207 211 239 243 247 248 248 247 249 243 227 244 253 255 255 244 232 238 249 260 265 264 267 265 266 268 266 252 257 267 271 271 267 252 217 219
222 228 230 232 237 242 218 204 207 241 249 252 249 247 240 240 246 220 237 248 253 256 261 251 231 237 244 245 232 240 253 259 265 268 263 259 265 270 274 267 263 248 227